Simultaneous Nadir Overpasses (SNOs) Predictions

Prediction of SNOs between AQUA and METOP-B Satellite Orbit:

Table of predicted SNOs for the next 14.0 days since TLE Epoch: 1/4/2013
Index Date (AQUA) Time (AQUA) Lat,Lon (AQUA) SZA (AQUA ) Date (METOP-B) Time (METOP-B) Lat,Lon (METOP-B) SZA (METOP-B ) Distance(km) Time Diff (sec)
1 01/05/2013 09:51:13 73.61, 26.80 96.19 01/05/2013 09:50:00 73.58, 26.38 96.18 13.72 73
2 01/05/2013 10:40:42 -73.79,-165.94 83.63 01/05/2013 10:40:38 -73.77,-165.83 83.64 3.77 4
3 01/05/2013 11:30:10 73.82, 1.63 96.40 01/05/2013 11:31:17 73.81, 1.59 96.39 1.72 67
4 01/08/2013 05:25:28 73.71, 93.04 95.95 01/08/2013 05:24:21 73.72, 93.13 95.98 3.51 67
5 01/08/2013 06:14:55 -73.78, -99.47 83.98 01/08/2013 06:15:02 -73.77, -99.44 83.99 1.46 7
6 01/08/2013 07:04:26 73.97, 67.74 96.22 01/08/2013 07:05:37 74.00, 68.47 96.22 22.59 71
7 01/11/2013 00:59:41 73.71, 159.47 95.56 01/11/2013 00:58:46 73.71, 159.50 95.56 1.15 55
8 01/11/2013 01:49:08 -73.78, -33.03 84.38 01/11/2013 01:49:26 -73.80, -32.96 84.37 3.21 18
9 01/11/2013 02:38:47 74.39, 133.22 96.27 01/11/2013 02:39:53 74.43, 135.96 96.22 82.10 66
10 01/13/2013 20:33:53 73.73,-134.12 95.12 01/13/2013 20:33:10 73.73,-134.03 95.13 2.64 43
11 01/13/2013 21:23:20 -73.80, 33.39 84.82 01/13/2013 21:23:51 -73.77, 33.38 84.85 3.20 31
12 01/16/2013 16:08:03 73.72, -67.62 94.59 01/16/2013 16:07:34 73.74, -67.60 94.62 3.10 29
13 01/16/2013 16:57:30 -73.78, 99.89 85.36 01/16/2013 16:58:15 -73.78, 99.80 85.36 2.73 45




NCC Satellite Simultaneous Nadir Overpasses (SNOs) Prediction Service
